Time,TemperatureF,DewpointF,PressureIn,WindDirection,WindDirectionDegrees,WindSpeedMPH,WindSpeedGustMPH,Humidity,HourlyPrecipIn,Conditions,Clouds,dailyrainin,SoftwareType,DateUTC
2013-03-15 00:07:00,45.0,39.0,30.08,North,355,0.0,1.0,80,0.00,,,0.00,weatherlink.com 1.10,2013-03-15 05:07:00,
2013-03-15 00:22:00,43.9,38.0,30.08,North,355,0.0,1.0,81,0.00,,,0.00,weatherlink.com 1.10,2013-03-15 05:22:00,
2013-03-15 00:37:00,42.4,38.0,30.07,North,355,0.0,2.0,84,0.00,,,0.00,weatherlink.com 1.10,2013-03-15 05:37:00,
2013-03-15 00:52:00,41.3,37.0,30.07,North,355,0.0,1.0,85,0.00,,,0.00,weatherlink.com 1.10,2013-03-15 05:52:00,
2013-03-15 01:07:00,40.3,37.0,30.06,North,355,0.0,2.0,88,0.00,,,0.00,weatherlink.com 1.10,2013-03-15 06:07:00,
2013-03-15 01:22:00,39.8,37.0,30.06,North,355,2.0,2.0,89,0.00,,,0.00,weatherlink.com 1.10,2013-03-15 06:22:00,
2013-03-15 01:37:00,39.1,36.0,30.05,North,355,1.0,3.0,88,0.00,,,0.00,weatherlink.com 1.10,2013-03-15 06:37:00,
2013-03-15 01:52:00,38.6,36.0,30.05,North,355,0.0,1.0,90,0.00,,,0.00,weatherlink.com 1.10,2013-03-15 06:52:00,
2013-03-15 02:07:00,38.4,36.0,30.04,North,355,0.0,1.0,91,0.00,,,0.00,weatherlink.com 1.10,2013-03-15 07:07:00,
2013-03-15 02:22:00,38.4,36.0,30.04,North,355,0.0,1.0,92,0.00,,,0.00,weatherlink.com 1.10,2013-03-15 07:22:00,
2013-03-15 02:37:00,38.0,36.0,30.03,North,355,0.0,0.0,91,0.00,,,0.00,weatherlink.com 1.10,2013-03-15 07:37:00,
2013-03-15 02:52:00,38.2,36.0,30.03,North,355,0.0,1.0,92,0.00,,,0.00,weatherlink.com 1.10,2013-03-15 07:52:00,
2013-03-15 03:07:00,37.3,35.0,30.02,North,355,1.0,2.0,91,0.00,,,0.00,weatherlink.com 1.10,2013-03-15 08:07:00,
2013-03-15 03:22:00,36.5,34.0,30.01,North,355,0.0,0.0,91,0.00,,,0.00,weatherlink.com 1.10,2013-03-15 08:22:00,
2013-03-15 03:37:00,35.7,33.0,30.00,North,355,1.0,2.0,91,0.00,,,0.00,weatherlink.com 1.10,2013-03-15 08:37:00,
2013-03-15 03:53:00,35.4,33.0,30.00,North,355,1.0,2.0,92,0.00,,,0.00,weatherlink.com 1.10,2013-03-15 08:53:00,
2013-03-15 04:08:00,35.3,33.0,29.99,North,355,1.0,3.0,92,0.00,,,0.00,weatherlink.com 1.10,2013-03-15 09:08:00,
2013-03-15 04:23:00,35.2,33.0,29.99,North,355,1.0,1.0,92,0.00,,,0.00,weatherlink.com 1.10,2013-03-15 09:23:00,
2013-03-15 04:38:00,34.8,33.0,29.99,North,355,0.0,0.0,93,0.00,,,0.00,weatherlink.com 1.10,2013-03-15 09:38:00,
2013-03-15 04:53:00,35.4,34.0,29.98,North,355,0.0,2.0,94,0.00,,,0.00,weatherlink.com 1.10,2013-03-15 09:53:00,
2013-03-15 05:08:00,35.9,34.0,29.98,North,355,0.0,1.0,93,0.00,,,0.00,weatherlink.com 1.10,2013-03-15 10:08:00,
2013-03-15 05:23:00,35.5,33.0,29.98,North,355,0.0,1.0,91,0.00,,,0.00,weatherlink.com 1.10,2013-03-15 10:23:00,
2013-03-15 05:38:00,35.8,34.0,29.98,North,355,0.0,1.0,91,0.00,,,0.00,weatherlink.com 1.10,2013-03-15 10:38:00,
2013-03-15 05:53:00,35.9,33.0,29.96,North,355,0.0,2.0,90,0.00,,,0.00,weatherlink.com 1.10,2013-03-15 10:53:00,
2013-03-15 06:08:00,36.0,33.0,29.97,North,355,1.0,2.0,90,0.00,,,0.00,weatherlink.com 1.10,2013-03-15 11:08:00,
2013-03-15 06:23:00,36.5,34.0,29.97,North,355,0.0,2.0,89,0.00,,,0.00,weatherlink.com 1.10,2013-03-15 11:23:00,
2013-03-15 06:38:00,36.3,33.0,29.98,North,355,0.0,1.0,88,0.00,,,0.00,weatherlink.com 1.10,2013-03-15 11:38:00,
2013-03-15 06:53:00,35.9,33.0,29.97,North,355,2.0,4.0,88,0.00,,,0.00,weatherlink.com 1.10,2013-03-15 11:53:00,
2013-03-15 07:08:00,35.3,32.0,29.97,North,355,1.0,1.0,89,0.00,,,0.00,weatherlink.com 1.10,2013-03-15 12:08:00,
2013-03-15 07:23:00,35.7,33.0,29.97,North,351,1.0,3.0,90,0.00,,,0.00,weatherlink.com 1.10,2013-03-15 12:23:00,
2013-03-15 07:38:00,36.4,34.0,29.97,North,351,1.0,3.0,89,0.00,,,0.00,weatherlink.com 1.10,2013-03-15 12:38:00,
2013-03-15 07:53:00,36.6,34.0,29.97,North,351,2.0,3.0,91,0.00,,,0.00,weatherlink.com 1.10,2013-03-15 12:53:00,
2013-03-15 08:08:00,38.2,35.0,29.96,NNW,348,1.0,3.0,89,0.00,,,0.00,weatherlink.com 1.10,2013-03-15 13:08:00,
2013-03-15 08:23:00,39.2,36.0,29.96,SW,214,0.0,2.0,89,0.00,,,0.00,weatherlink.com 1.10,2013-03-15 13:23:00,
2013-03-15 08:38:00,40.7,38.0,29.96,SW,214,1.0,2.0,88,0.00,,,0.00,weatherlink.com 1.10,2013-03-15 13:38:00,
2013-03-15 08:53:00,42.6,39.0,29.95,SW,234,3.0,4.0,86,0.00,,,0.00,weatherlink.com 1.10,2013-03-15 13:53:00,
2013-03-15 09:08:00,45.0,41.0,29.95,SW,223,0.0,4.0,85,0.00,,,0.00,weatherlink.com 1.10,2013-03-15 14:08:00,
2013-03-15 09:23:00,46.8,41.0,29.94,South,187,4.0,5.0,79,0.00,,,0.00,weatherlink.com 1.10,2013-03-15 14:23:00,
2013-03-15 09:38:00,47.9,42.0,29.94,South,186,0.0,3.0,80,0.00,,,0.00,weatherlink.com 1.10,2013-03-15 14:38:00,
2013-03-15 09:53:00,49.3,43.0,29.94,South,186,3.0,6.0,78,0.00,,,0.00,weatherlink.com 1.10,2013-03-15 14:53:00,
2013-03-15 10:08:00,51.5,44.0,29.93,South,186,2.0,5.0,75,0.00,,,0.00,weatherlink.com 1.10,2013-03-15 15:08:00,
2013-03-15 10:24:00,52.8,45.0,29.93,South,189,4.0,5.0,74,0.00,,,0.00,weatherlink.com 1.10,2013-03-15 15:24:00,
2013-03-15 10:39:00,54.4,45.0,29.92,SSW,205,3.0,8.0,70,0.00,,,0.00,weatherlink.com 1.10,2013-03-15 15:39:00,
2013-03-15 10:54:00,55.0,44.0,29.92,SSE,163,5.0,7.0,67,0.00,,,0.00,weatherlink.com 1.10,2013-03-15 15:54:00,
2013-03-15 11:09:00,57.1,45.0,29.91,SSW,192,3.0,7.0,64,0.00,,,0.00,weatherlink.com 1.10,2013-03-15 16:09:00,
2013-03-15 11:24:00,59.2,45.0,29.91,SSW,208,2.0,6.0,59,0.00,,,0.00,weatherlink.com 1.10,2013-03-15 16:24:00,
2013-03-15 11:39:00,60.6,46.0,29.91,South,184,3.0,8.0,59,0.00,,,0.00,weatherlink.com 1.10,2013-03-15 16:39:00,
2013-03-15 11:54:00,61.9,46.0,29.89,South,188,6.0,8.0,56,0.00,,,0.00,weatherlink.com 1.10,2013-03-15 16:54:00,
2013-03-15 12:09:00,63.9,46.0,29.88,SSW,195,3.0,8.0,53,0.00,,,0.00,weatherlink.com 1.10,2013-03-15 17:09:00,
2013-03-15 12:24:00,65.5,47.0,29.87,SSW,195,7.0,8.0,52,0.00,,,0.00,weatherlink.com 1.10,2013-03-15 17:24:00,
2013-03-15 12:39:00,66.2,48.0,29.86,SSW,202,6.0,11.0,52,0.00,,,0.00,weatherlink.com 1.10,2013-03-15 17:39:00,
2013-03-15 12:54:00,68.4,49.0,29.85,SSW,211,6.0,9.0,50,0.00,,,0.00,weatherlink.com 1.10,2013-03-15 17:54:00,
2013-03-15 13:09:00,69.1,48.0,29.84,South,182,10.0,11.0,47,0.00,,,0.00,weatherlink.com 1.10,2013-03-15 18:09:00,
2013-03-15 13:24:00,70.1,48.0,29.83,SW,231,3.0,9.0,46,0.00,,,0.00,weatherlink.com 1.10,2013-03-15 18:24:00,
2013-03-15 13:55:00,71.5,50.0,29.81,SSW,200,7.0,12.0,46,0.00,,,0.00,weatherlink.com 1.10,2013-03-15 18:55:00,
2013-03-15 14:10:00,71.8,49.0,29.80,SSE,165,4.0,15.0,45,0.00,,,0.00,weatherlink.com 1.10,2013-03-15 19:10:00,
2013-03-15 14:25:00,71.5,50.0,29.78,SSW,209,8.0,14.0,46,0.00,,,0.00,weatherlink.com 1.10,2013-03-15 19:25:00,
2013-03-15 14:40:00,72.1,48.0,29.76,SSW,207,7.0,15.0,43,0.00,,,0.00,weatherlink.com 1.10,2013-03-15 19:40:00,
2013-03-15 14:55:00,73.2,50.0,29.75,South,188,6.0,10.0,44,0.00,,,0.00,weatherlink.com 1.10,2013-03-15 19:55:00,
2013-03-15 15:10:00,73.7,50.0,29.74,SW,215,10.0,16.0,43,0.00,,,0.00,weatherlink.com 1.10,2013-03-15 20:10:00,
2013-03-15 15:25:00,73.6,48.0,29.73,SSW,200,7.0,17.0,41,0.00,,,0.00,weatherlink.com 1.10,2013-03-15 20:25:00,
2013-03-15 15:40:00,75.1,49.0,29.73,SSE,157,5.0,16.0,40,0.00,,,0.00,weatherlink.com 1.10,2013-03-15 20:40:00,
2013-03-15 15:55:00,74.9,48.0,29.72,WSW,250,5.0,15.0,39,0.00,,,0.00,weatherlink.com 1.10,2013-03-15 20:55:00,
2013-03-15 16:10:00,76.8,48.0,29.71,SW,219,6.0,13.0,36,0.00,,,0.00,weatherlink.com 1.10,2013-03-15 21:10:00,
2013-03-15 16:25:00,76.0,47.0,29.70,SW,220,4.0,18.0,36,0.00,,,0.00,weatherlink.com 1.10,2013-03-15 21:25:00,
2013-03-15 16:40:00,77.2,48.0,29.69,SW,220,12.0,14.0,36,0.00,,,0.00,weatherlink.com 1.10,2013-03-15 21:40:00,
2013-03-15 16:55:00,77.7,47.0,29.69,SW,223,9.0,17.0,34,0.00,,,0.00,weatherlink.com 1.10,2013-03-15 21:55:00,
2013-03-15 17:10:00,77.7,47.0,29.68,SSW,209,7.0,12.0,34,0.00,,,0.00,weatherlink.com 1.10,2013-03-15 22:10:00,
2013-03-15 17:25:00,78.1,47.0,29.68,SW,227,5.0,14.0,33,0.00,,,0.00,weatherlink.com 1.10,2013-03-15 22:25:00,
2013-03-15 17:40:00,77.5,45.0,29.67,SW,225,5.0,15.0,32,0.00,,,0.00,weatherlink.com 1.10,2013-03-15 22:40:00,
2013-03-15 17:55:00,76.6,47.0,29.67,SW,223,6.0,15.0,35,0.00,,,0.00,weatherlink.com 1.10,2013-03-15 22:55:00,
2013-03-15 18:10:00,75.8,47.0,29.67,South,184,6.0,14.0,36,0.00,,,0.00,weatherlink.com 1.10,2013-03-15 23:10:00,
2013-03-15 18:25:00,75.1,46.0,29.67,SW,219,6.0,12.0,36,0.00,,,0.00,weatherlink.com 1.10,2013-03-15 23:25:00,
2013-03-15 18:40:00,74.8,47.0,29.66,SW,215,4.0,12.0,37,0.00,,,0.00,weatherlink.com 1.10,2013-03-15 23:40:00,
2013-03-15 18:55:00,73.6,46.0,29.66,WSW,240,6.0,11.0,38,0.00,,,0.00,weatherlink.com 1.10,2013-03-15 23:55:00,
2013-03-15 19:10:00,72.5,46.0,29.66,WSW,238,4.0,9.0,39,0.00,,,0.00,weatherlink.com 1.10,2013-03-16 00:10:00,
2013-03-15 19:25:00,71.4,46.0,29.67,WSW,256,2.0,6.0,40,0.00,,,0.00,weatherlink.com 1.10,2013-03-16 00:25:00,
2013-03-15 19:40:00,70.1,46.0,29.67,WSW,243,1.0,4.0,42,0.00,,,0.00,weatherlink.com 1.10,2013-03-16 00:40:00,
2013-03-15 19:55:00,68.8,46.0,29.67,WSW,243,1.0,4.0,44,0.00,,,0.00,weatherlink.com 1.10,2013-03-16 00:55:00,
2013-03-15 20:10:00,67.8,46.0,29.67,SW,225,2.0,4.0,45,0.00,,,0.00,weatherlink.com 1.10,2013-03-16 01:10:00,
2013-03-15 20:25:00,67.9,46.0,29.67,SW,223,3.0,6.0,45,0.00,,,0.00,weatherlink.com 1.10,2013-03-16 01:25:00,
2013-03-15 20:40:00,67.6,46.0,29.66,SW,222,2.0,6.0,46,0.00,,,0.00,weatherlink.com 1.10,2013-03-16 01:40:00,
2013-03-15 20:55:00,67.3,46.0,29.66,SW,232,3.0,8.0,46,0.00,,,0.00,weatherlink.com 1.10,2013-03-16 01:55:00,
2013-03-15 21:10:00,66.6,46.0,29.66,SW,221,5.0,7.0,47,0.00,,,0.00,weatherlink.com 1.10,2013-03-16 02:10:00,
2013-03-15 21:25:00,66.1,46.0,29.66,SW,234,4.0,9.0,48,0.00,,,0.00,weatherlink.com 1.10,2013-03-16 02:25:00,
2013-03-15 21:40:00,66.1,46.0,29.67,SSW,205,2.0,7.0,48,0.00,,,0.00,weatherlink.com 1.10,2013-03-16 02:40:00,
2013-03-15 21:55:00,66.1,46.0,29.67,SW,231,2.0,8.0,48,0.00,,,0.00,weatherlink.com 1.10,2013-03-16 02:55:00,
2013-03-15 22:10:00,65.6,46.0,29.66,SW,220,1.0,6.0,49,0.00,,,0.00,weatherlink.com 1.10,2013-03-16 03:10:00,
2013-03-15 22:25:00,64.6,46.0,29.66,SW,227,1.0,4.0,51,0.00,,,0.00,weatherlink.com 1.10,2013-03-16 03:25:00,
2013-03-15 22:40:00,64.2,46.0,29.66,SW,231,2.0,7.0,52,0.00,,,0.00,weatherlink.com 1.10,2013-03-16 03:40:00,
2013-03-15 22:55:00,63.9,46.0,29.66,SW,229,3.0,7.0,53,0.00,,,0.00,weatherlink.com 1.10,2013-03-16 03:55:00,
2013-03-15 23:10:00,63.4,47.0,29.65,SSW,206,3.0,9.0,55,0.00,,,0.00,weatherlink.com 1.10,2013-03-16 04:10:00,
2013-03-15 23:25:00,62.9,47.0,29.65,SW,227,1.0,6.0,56,0.00,,,0.00,weatherlink.com 1.10,2013-03-16 04:25:00,
2013-03-15 23:40:00,63.2,47.0,29.65,WSW,240,3.0,7.0,56,0.00,,,0.00,weatherlink.com 1.10,2013-03-16 04:40:00,
2013-03-15 23:56:00,63.2,47.0,29.64,SW,225,5.0,7.0,56,0.00,,,0.00,weatherlink.com 1.10,2013-03-16 04:56:00,